Regional Weather Roundup
Issued by NWS Goodland, KS

Home | Current Version | Previous Version | Text Only | Print | Product List | Glossary On
Versions: 1 2 3 4 5 6 7 8 9 10 11 12 13 14 15 16 17 18 19 20 21 22 23 24 25 26 27 28 29 30 31 32 33 34 35 36 37 38 39 40 41 42 43 44 45 46 47 48 49 50
000
ASUS43 KGLD 191808
RWRGLD

GOODLAND FORECAST AREA HOURLY WEATHER ROUNDUP
NATIONAL WEATHER SERVICE GOODLAND KS
1200 PM MDT THU APR 19 2018

...OFFICIAL OBSERVATIONS...

CITY           SKY/WX    TMP DP  RH WIND       PRES   REMARKS
GOODLAND KS    SUNNY     56  28  34 SE18G31   30.34F
HILL CITY KS   SUNNY     54  31  41 E8G18     30.43F
IMPERIAL NEB   SUNNY     55  29  36 SE15G31   30.35F
MCCOOK NEB     SUNNY     53  29  39 SE12G21   30.40F
AKRON CO       PTSUNNY   53  25  33 S28G40    30.26F
BURLINGTON CO  MOSUNNY   57  27  31 SE20G32   30.31F
LIMON CO       PTSUNNY   54  18  24 SE30G40   30.24F
$$

...UNOFFICIAL OBSERVATIONS...

CITY           SKY/WX    TMP DP  RH WIND       PRES   REMARKS
COLBY KS       SUNNY     55  34  44 SE10G21   30.38F
NORTON KS      SUNNY     55  28  35 NE9       30.41
SHARON SPRINGS   N/A     60  31  33 S10G21      N/A
KIT CARSON CO    N/A     56  27  32 MISG        N/A
YUMA CO        FAIR      55  28  35 SE23G31   30.28F
$$




USA.gov is the U.S. government's official web portal to all federal, state and local government web resources and services.